Home   Weather   Aarhus   Past weeks
Flag for Denmark

Past Weather in Aarhus, Denmark — Yesterday and Last 2 Weeks

Now
46 °F

Cool.


Feels Like: 41 °F
Forecast: 60 / 43 °F
Wind: 13 mph from West

Location: Tirstrup

Current Time: Sep 18, 2019 at 7:25:53 am

Latest Report: Sep 18, 2019 at 6:50 am


Visibility: N/A

Pressure: 30.04 "Hg

Humidity: 87%

Dew Point: 43 °F

Location of AarhusLocation

Past Weather in Aarhus — Graph

°F

Aarhus Temperature Yesterday

Maximum temperature yesterday: 55 °F (at 4:20 pm)
Minimum temperature yesterday: 46 °F (at 7:20 am)
Average temperature yesterday: 50 °F

High & Low Weather Summary for the Past Weeks

 TemperatureHumidityPressure
High68 °F (Sep 3, 3:50 pm)100% (Sep 3, 7:20 am)30.45 "Hg (Sep 3, 7:20 am)
Low43 °F (Sep 8, 5:20 am)52% (Sep 14, 4:50 pm)29.68 "Hg (Sep 4, 9:50 pm)
Average57 °F84%29.99 "Hg
* Reported Sep 3 6:20 am — Sep 18 6:20 am, Aarhus. Weather by CustomWeather, © 2019

Note: Actual official high and low records may vary slightly from our data, if they occured in-between our weather recording intervals... More about our weather records

Advertising

Aarhus Weather History for the Previous 24 Hours

Scroll right to see more
 ConditionsComfort  
Time TempWeatherWind HumidityBarometerVisibility
6:20 am
Wed, Sep 18
46 °FCool.12 mph87%30.01 "HgN/A
5:50 am46 °FCool.12 mph87%30.01 "HgN/A
5:20 am46 °FCool.12 mph87%30.01 "HgN/A
4:50 am46 °FCool.10 mph87%30.01 "HgN/A
4:20 am46 °FCool.10 mph87%30.01 "HgN/A
3:50 am46 °FCool.10 mph87%29.98 "HgN/A
3:20 am46 °FCool.9 mph87%29.98 "HgN/A
2:50 am46 °FCool.9 mph87%29.98 "HgN/A
2:20 am46 °FCool.10 mph82%29.98 "HgN/A
1:50 am46 °FCool.10 mph82%29.98 "HgN/A
1:20 am46 °FCool.9 mph82%29.98 "HgN/A
12:50 am46 °FCool.9 mph76%29.98 "HgN/A
12:20 am46 °FCool.9 mph76%29.95 "HgN/A
11:50 pm
Tue, Sep 17
46 °FCool.9 mph76%29.95 "HgN/A
11:20 pm46 °FCool.10 mph76%29.95 "HgN/A
10:50 pm48 °FCool.12 mph76%29.92 "HgN/A
10:20 pm48 °FCool.12 mph71%29.92 "HgN/A
9:50 pm48 °FCool.13 mph71%29.92 "HgN/A
9:20 pm48 °FCool.12 mph71%29.89 "HgN/A
8:50 pm48 °FCool.12 mph71%29.89 "HgN/A
8:20 pm48 °FCool.13 mph71%29.86 "HgN/A
7:50 pm50 °FCool.13 mph71%29.83 "HgN/A
7:20 pm50 °FCool.13 mph71%29.83 "HgN/A
6:50 pm52 °FCool.13 mph67%29.80 "HgN/A
6:20 pm52 °FCool.14 mph67%29.80 "HgN/A
5:50 pm54 °FPassing clouds.18 mph63%29.80 "HgN/A
5:20 pm55 °FScattered clouds.18 mph59%29.77 "HgN/A
4:50 pm55 °FScattered clouds.20 mph59%29.77 "HgN/A
4:20 pm55 °FPartly sunny.20 mph59%29.74 "HgN/A
3:50 pm54 °FPartly sunny.20 mph63%29.74 "HgN/A
3:20 pm54 °FScattered clouds.22 mph63%29.74 "HgN/A
2:50 pm52 °FSprinkles. Partly sunny.22 mph72%29.71 "HgN/A
2:20 pm54 °FPartly sunny.28 mph63%29.71 "HgN/A
1:50 pm54 °FSprinkles. Broken clouds.24 mph63%29.71 "HgN/A
1:20 pm54 °FScattered clouds.22 mph72%29.71 "HgN/A
12:50 pm52 °FPassing clouds.21 mph77%29.71 "HgN/A
12:20 pm50 °FSprinkles. Scattered clouds.20 mph76%29.74 "HgN/A
11:50 am48 °FSprinkles. Partly sunny.14 mph82%29.74 "HgN/A
11:20 am50 °FSprinkles. Passing clouds.22 mph82%29.74 "HgN/A
10:50 am48 °FRain. Passing clouds.15 mph87%29.74 "HgN/A
10:20 am46 °FSprinkles. Partly sunny.13 mph87%29.74 "HgN/A
9:50 am48 °FSprinkles. Broken clouds.10 mph87%29.77 "HgN/A
9:20 am46 °FRain. Broken clouds.7 mph87%29.77 "HgN/A
8:50 am46 °FRain. Partly sunny.7 mph87%29.77 "Hg4 mi
8:20 am46 °FSprinkles. Scattered clouds.6 mph87%29.77 "HgN/A
7:50 am46 °FScattered clouds.8 mph87%29.77 "HgN/A
7:20 am46 °FScattered clouds.14 mph82%29.77 "HgN/A
Weather by CustomWeather, © 2019

See weather overview